Regional Weather Roundup
Issued by NWS

Home | Current Version | Previous Version | Graphics & Text | Print | Product List | Glossary On
Versions: 1 2 3 4 5 6 7 8 9 10 11 12 13 14 15 16 17 18 19 20 21 22 23 24 25 26 27 28 29 30 31 32 33 34 35 36 37 38 39 40 41 42 43 44 45 46
000
ASUS45 KCYS 251410
RWRWY

WYOMING REGIONAL WEATHER ROUNDUP
NATIONAL WEATHER SERVICE CHEYENNE WY
700 AM MST THU DEC 25 2014

NOTE:  "FAIR" INDICATES FEW OR NO CLOUDS BELOW 12,000 FEET
WITH NO SIGNIFICANT WEATHER AND/OR OBSTRUCTIONS TO VISIBILITY.

WYZ001-251500-
YELLOWSTONE NATIONAL PARK

CITY           SKY/WX    TMP DP  RH WIND       PRES   REMARKS
LK YELLOWSTONE   N/A     18  11  74 VRB6      29.47R WCI  10
W YELLOWSTONE  NOT AVBL

$$
WYZ002>013-054>058-071-098>099-251500-
NORTHERN WYOMING

CITY           SKY/WX    TMP DP  RH WIND       PRES   REMARKS
JACKSON        LGT SNOW  27  25  93 SE5       29.39R WCI  21
CODY           CLOUDY    25  21  86 N22G32    29.61R WCI  10
GREYBULL       CLOUDY    30  24  78 NW17G23   29.54R WCI  18
WORLAND        SNOW      28  27  96 NW10      29.52R VSB 1/2 WCI  19
SHERIDAN       LGT SNOW  28  24  85 N14       29.70R FOG     WCI  17
BUFFALO        LGT SNOW  24  23  96 NW17      29.64R VSB 3/4 WCI  11
GILLETTE       LGT SNOW  27  24  89 N21       29.60R FOG     WCI  13
HULETT           N/A    N/A N/A N/A MISG        N/A
NEWCASTLE      CLOUDY    30  27  86 NW3       29.53R

$$
WYZ014>020-022>026-101>103-251500-
CENTRAL WYOMING

CITY           SKY/WX    TMP DP  RH WIND       PRES   REMARKS
BIG PINEY      FLURRIES  23  20  88 NE7       29.37S WCI  15
PINEDALE       LGT SNOW  27  27 100 SE3       29.38R VSB 3/4
DUBOIS         NOT AVBL
LANDER         SNOW      26  24  92 NW10      29.48R VSB 1/2 WCI  16
RIVERTON       LGT SNOW  26  23  88 N21       29.48R VSB 3/4 WCI  12
CASPER         LGT SNOW  26  23  88 N10       29.50R FOG     WCI  16
DOUGLAS        LGT SNOW  29  27  92 NW12      29.50R FOG     WCI  19

$$
WYZ021-027>030-104>119-251500-
SOUTHERN WYOMING

CITY           SKY/WX    TMP DP  RH WIND       PRES   REMARKS
EVANSTON       CLOUDY    21  20  96 SW14      29.44R WCI   8
KEMMERER       CLOUDY    23  23 100 W16       29.40R WCI  10
FORT BRIDGER   CLOUDY    26  24  93 W20G26    29.44R WCI  12
ROCK SPRINGS   LGT SNOW  24  22  91 S7        29.41R FOG     WCI  16
DIXON          LGT SNOW  31  27  87 S8        29.50S WCI  23
RAWLINS        CLOUDY    28  22  78 SW16G23   29.44R WCI  16
SARATOGA       CLOUDY    32  25  74 SE12      29.44R WCI  23
LARAMIE        MOCLDY    32  21  64 SW17      29.42R WCI  21
CHEYENNE       CLOUDY    31  20  63 N3        29.44R
TORRINGTON     CLOUDY    35  29  78 N17       29.45R WCI  25
PINE BLUFFS    CLOUDY    34  23  64 N15       29.42S WCI  24

$$


USA.gov is the U.S. government's official web portal to all federal, state and local government web resources and services.